Theta_e
327 327 326 326 325 324 324 324 323 323 323 323 322 321 322 322 322 322 322 321 321 321 321 321 321 323 325 323 324 323 346 339 324 321 324 323 326 325 318 324 328 326 329 332 333 332 333
327 327 327 325 325 325 324 324 323 323 322 322 321 321 321 322 321 321 321 321 319 319 320 321 322 323 324 319 328 322 320 321 322 320 321 324 327 326 319 322 327 328 331 331 331 330 330
326 326 326 326 325 325 324 324 324 323 323 322 321 321 321 321 321 320 319 319 319 319 320 321 322 326 325 324 331 325 321 322 324 321 319 323 328 323 322 324 332 331 326 325 330 330 328
326 326 325 324 324 323 323 323 323 323 323 322 321 321 320 321 321 320 318 317 318 320 321 321 323 327 324 331 331 327 325 321 323 323 322 325 330 324 319 331 325 327 325 314 328 328 327
326 325 325 324 323 322 322 322 323 322 322 322 321 321 321 321 320 318 316 317 322 323 323 322 324 325 321 331 321 325 324 320 321 322 323 324 323 319 319 322 320 319 311 312 320 328 325
326 325 325 324 323 322 322 322 322 322 322 322 321 321 320 320 318 316 315 317 323 322 323 328 327 322 326 319 322 323 321 321 318 317 317 317 318 314 314 314 308 309 310 312 315 323 326
325 325 325 324 323 322 322 322 322 322 322 322 321 320 319 318 317 315 316 326 324 321 328 319 322 320 321 321 323 319 320 317 318 314 308 315 312 308 312 316 319 316 311 313 317 328 323
324 323 323 323 322 322 321 321 321 321 321 320 319 319 318 317 315 314 316 320 322 322 314 324 324 323 323 321 313 317 319 313 312 307 310 311 307 313 315 317 318 319 314 314 322 325 324
322 321 321 321 321 320 320 320 320 320 319 319 319 318 317 315 314 316 319 322 328 326 314 318 322 319 320 320 314 315 317 314 310 307 309 307 310 313 312 312 312 315 315 314 313 320 323
321 320 320 320 320 319 319 319 320 319 319 319 319 318 316 312 316 326 322 325 327 326 309 313 316 318 320 320 314 321 320 316 312 308 309 309 313 311 310 309 311 308 316 316 313 311 308
319 319 319 319 319 318 318 319 320 319 319 318 318 317 314 312 319 322 325 326 325 322 298 316 317 325 321 316 318 316 322 316 310 309 309 307 308 307 307 308 311 309 316 315 313 310 310
319 318 319 319 319 318 318 319 319 319 318 318 317 315 313 319 320 326 329 327 321 307 299 312 316 314 314 316 316 317 316 318 316 310 310 308 313 310 309 311 310 313 313 314 313 310 302
318 318 318 318 318 318 318 318 318 318 317 316 314 312 312 321 320 329 327 319 304 300 313 311 312 314 312 312 313 313 310 309 306 303 304 307 307 312 311 306 309 308 306 300 301 301 301
318 317 317 317 317 317 317 317 318 317 317 314 311 309 317 323 328 328 323 309 299 307 308 314 315 314 309 312 312 312 309 306 310 309 306 304 301 308 312 308 306 306 306 301 298 301 302
318 318 318 317 317 317 317 317 316 317 316 313 310 324 325 328 327 326 316 302 304 308 313 312 312 310 309 311 312 311 310 309 312 311 304 304 305 312 312 312 310 306 303 310 305 308 302
317 317 317 317 317 316 316 316 316 316 315 312 317 322 324 328 327 321 312 302 309 314 315 313 306 312 308 310 309 310 310 313 312 315 315 309 304 310 311 312 312 311 312 303 305 299 298
315 316 317 317 317 318 317 317 316 316 313 311 319 320 324 327 325 316 306 308 311 315 316 311 309 309 311 310 311 310 310 314 315 314 314 311 308 309 312 307 306 308 308 309 309 307 301
314 316 316 317 317 318 319 318 316 314 311 315 320 314 327 326 312 313 309 312 308 314 317 314 313 311 310 312 312 311 311 313 317 315 309 311 309 305 309 312 313 311 310 310 303 304 306
314 315 316 316 317 318 318 317 316 313 312 315 315 318 326 323 307 310 314 312 313 312 312 312 311 312 313 311 309 312 313 318 318 315 312 313 307 302 304 310 312 308 311 312 310 310 306
312 313 314 315 316 317 318 317 316 314 313 315 315 312 319 320 318 313 311 312 311 314 312 312 312 314 311 309 312 310 312 315 317 316 326 317 310 306 301 306 311 309 309 311 309 305 306
312 312 313 315 316 317 317 317 316 314 312 315 319 314 317 311 315 315 315 313 310 310 316 313 311 310 309 306 307 308 312 314 317 320 317 314 307 309 310 311 311 310 310 311 307 309 305
311 311 313 316 315 316 317 317 317 314 311 318 315 312 315 312 314 312 309 311 308 310 312 311 311 312 312 308 309 307 310 313 313 315 314 314 309 309 307 310 310 308 311 311 310 311 310
310 311 312 314 314 315 317 317 318 314 313 317 318 318 314 309 310 308 309 310 310 313 313 315 314 313 312 313 317 317 317 317 316 314 313 313 311 310 304 308 307 302 309 312 312 314 313
310 311 312 313 313 314 316 318 319 317 314 316 317 315 309 305 308 309 310 311 310 311 309 313 315 312 316 321 320 318 316 315 316 316 317 314 314 313 305 308 299 309 316 316 312 313 314
310 312 311 313 313 314 315 318 320 318 315 316 318 315 310 305 308 308 309 310 311 312 310 311 313 315 318 315 309 306 307 308 311 313 314 316 314 309 304 303 308 309 312 314 311 311 315
310 311 311 312 313 314 314 316 318 318 316 316 316 319 313 306 308 310 308 310 307 307 309 311 316 319 316 310 306 300 298 303 303 307 313 313 315 310 307 301 298 311 316 318 317 307 317
310 310 311 311 312 313 314 315 317 317 316 315 315 319 312 307 311 311 308 307 311 310 308 311 312 311 315 307 302 301 300 307 301 302 307 308 309 306 306 304 306 316 317 318 303 307 319
310 310 311 311 311 312 313 314 315 317 317 315 313 321 315 308 310 312 312 309 310 309 305 309 308 310 309 304 303 303 302 305 304 309 308 307 307 306 309 305 302 319 318 310 316 320 320
309 309 311 311 311 311 312 313 314 315 316 315 310 319 319 310 309 313 313 315 313 313 310 311 307 309 311 307 308 309 307 309 308 302 313 302 311 310 309 310 322 325 321 320 320 324 323
Wind_Speed
14 15 15 15 14 15 16 17 19 19 16 17 18 18 18 18 17 16 15 14 14 13 12 11 9 8 8 9 8 11 10 8 10 12 14 14 16 15 14 2 3 6 9 11 9 6 7
15 15 15 16 14 14 15 16 20 18 19 19 19 19 18 18 17 17 16 14 14 13 12 10 7 6 7 12 15 14 13 12 13 14 15 15 14 11 11 6 5 9 7 11 12 10 6
14 15 15 15 15 15 15 16 16 19 18 19 21 20 20 19 18 19 17 15 15 13 11 8 6 8 10 13 5 14 12 13 15 13 14 12 14 10 15 10 11 11 9 20 13 10 7
13 14 14 15 15 15 15 16 17 17 17 21 21 21 21 20 19 18 18 16 13 12 10 7 6 9 10 4 3 8 12 13 13 11 13 14 5 12 16 3 7 7 11 4 8 11 7
14 13 13 15 15 15 16 16 16 17 17 19 22 22 22 20 19 19 17 17 11 8 8 6 7 8 14 5 9 11 12 13 13 10 10 9 9 14 19 13 11 9 9 17 11 9 10
15 14 14 14 14 15 15 15 16 17 16 17 18 19 20 20 19 19 18 9 2 5 7 9 11 10 13 12 10 9 9 13 12 13 12 13 10 14 15 15 5 5 10 7 16 9 14
16 16 17 16 15 15 15 15 16 18 18 19 21 21 22 22 20 15 14 5 7 8 12 15 7 13 10 7 6 9 9 12 12 13 14 15 13 15 18 16 16 17 13 16 13 24 18
14 14 15 15 16 15 16 16 16 18 19 21 22 23 22 24 21 18 7 8 9 11 14 22 20 18 1 10 9 11 11 12 12 14 17 16 16 18 18 7 25 19 15 14 16 12 11
15 15 15 15 15 16 16 16 16 16 19 21 23 22 23 26 27 6 11 16 11 12 11 17 20 16 13 12 11 15 15 15 12 15 17 18 16 16 19 13 9 19 11 11 1 7 11
15 15 15 16 16 17 17 17 17 16 21 22 21 21 21 27 6 10 13 6 5 10 8 14 18 12 16 11 13 15 16 13 10 13 16 16 15 13 8 10 13 14 9 12 6 7 4
16 16 16 17 18 18 18 18 18 17 19 21 21 21 20 6 13 9 9 8 9 8 8 14 18 9 15 16 11 9 16 17 15 12 12 14 12 16 12 14 12 16 1 7 11 9 13
16 16 17 17 18 19 19 19 18 18 19 21 22 19 18 2 8 15 13 10 8 8 10 12 10 12 16 16 9 10 12 15 10 15 13 17 13 11 16 13 15 17 11 11 12 12 12
15 16 16 17 17 18 18 19 20 20 21 22 24 23 9 9 9 9 8 7 7 11 6 11 20 16 17 16 18 12 12 14 13 10 12 12 17 10 11 15 17 16 16 10 12 10 6
15 16 17 16 17 17 18 20 21 21 22 24 28 27 9 10 8 11 7 8 12 11 19 9 9 15 15 17 15 13 12 13 16 18 15 14 16 19 13 16 14 17 18 14 9 7 5
15 16 17 17 16 17 18 20 21 22 23 25 31 9 7 8 11 6 8 13 9 16 15 16 6 13 17 17 16 18 17 17 17 18 17 18 14 18 17 12 20 13 16 21 16 6 4
15 16 17 18 17 17 19 20 22 23 26 26 10 10 12 8 7 6 9 17 18 23 20 10 15 11 17 19 19 18 16 17 16 16 14 20 4 13 11 12 18 19 11 14 12 13 10
17 17 17 18 19 19 19 20 21 23 27 33 6 7 9 7 7 7 11 15 20 21 18 9 15 19 16 16 16 17 13 14 13 14 12 16 16 3 8 11 16 11 12 10 14 6 7
16 16 16 17 17 19 19 20 21 20 28 12 7 6 9 6 8 8 13 18 18 23 16 12 10 18 20 18 15 16 17 15 9 11 14 13 15 9 15 16 15 16 17 14 10 10 9
16 16 16 17 17 19 19 20 19 17 14 10 8 11 6 7 9 12 15 19 19 14 12 12 16 15 18 18 16 16 13 15 5 9 12 15 10 10 8 13 15 19 15 14 13 14 3
16 17 18 17 17 19 20 20 19 17 12 9 7 6 7 8 10 16 15 16 16 11 16 15 19 15 16 18 16 15 16 15 14 9 7 7 13 12 13 10 5 15 15 13 13 10 8
17 17 18 17 17 19 21 21 21 18 17 6 6 7 14 9 8 13 12 14 15 15 14 11 12 16 19 15 16 17 17 18 14 11 10 9 16 18 17 13 15 34 15 20 18 15 13
16 16 17 17 17 19 20 21 19 22 29 6 8 9 12 13 17 17 13 14 17 17 17 18 13 14 14 17 18 18 19 17 17 11 14 16 16 19 20 17 3 9 18 22 20 9 10
14 15 16 16 17 17 18 19 18 17 18 9 11 11 9 10 15 15 13 15 16 13 10 15 14 16 13 11 14 14 15 15 15 16 15 13 10 15 18 18 4 8 27 27 13 18 15
12 13 14 16 16 17 18 19 16 13 12 8 11 8 9 12 13 15 18 15 14 12 12 14 16 15 14 20 15 15 14 16 17 18 17 7 8 14 15 16 21 7 22 31 14 5 6
12 13 13 14 15 15 16 17 12 12 13 10 8 9 7 10 13 16 18 16 12 13 15 17 18 18 19 18 13 13 11 17 19 20 21 19 13 14 8 15 19 11 9 9 5 8 7
12 13 14 15 15 15 15 16 13 11 12 8 7 7 9 8 2 17 15 16 12 12 14 16 17 12 13 9 11 18 16 19 17 22 23 23 21 14 14 17 19 11 15 23 13 12 7
13 13 14 14 15 15 15 15 14 12 11 9 8 7 6 11 16 13 12 13 13 10 10 13 16 13 7 8 12 15 17 19 20 23 18 17 18 18 15 15 8 11 6 18 8 11 6
11 12 13 14 14 14 15 15 15 14 11 8 8 3 4 6 16 21 18 14 14 12 11 7 9 2 9 12 14 14 16 16 19 21 19 12 16 15 14 18 18 16 12 11 15 10 2
10 11 13 13 13 13 13 14 14 14 10 8 10 6 4 4 13 23 23 23 23 22 15 14 10 14 3 7 7 7 9 9 15 14 18 9 8 16 15 12 11 10 5 4 15 12 7
Wind_Direction
7 5 5 7 10 4 360 5 5 2 357 353 350 345 341 338 333 328 322 314 304 295 291 288 293 301 279 229 244 138 146 157 187 214 239 244 245 255 280 68 87 41 113 117 118 95 86
2 3 2 4 0 357 353 356 1 359 357 351 348 344 339 333 329 327 323 312 300 290 284 281 280 288 249 254 106 144 169 174 212 216 236 249 260 334 320 291 116 179 147 139 134 135 109
359 1 0 358 354 352 346 346 348 353 354 350 347 341 338 331 327 326 323 312 296 281 273 268 260 257 261 267 128 152 185 197 216 216 244 233 270 295 270 33 336 156 80 15 146 152 131
354 353 353 352 351 350 345 343 342 340 341 348 345 340 336 327 326 324 322 313 297 270 257 247 235 250 267 149 256 188 197 206 216 230 261 288 262 276 288 114 269 130 92 279 175 126 138
344 342 346 351 350 350 346 341 338 337 335 341 343 336 327 326 326 325 323 315 295 253 230 199 225 232 260 115 219 213 212 215 214 231 234 284 276 263 257 212 223 49 13 342 283 140 146
339 341 342 346 344 343 340 338 336 338 331 327 326 329 327 325 325 324 321 293 350 169 205 205 259 261 236 235 180 180 198 218 207 221 227 236 242 246 242 251 178 104 299 264 257 228 191
344 351 348 347 340 339 335 331 329 331 329 326 325 327 326 324 324 325 319 212 204 195 225 237 199 236 154 128 139 196 190 220 197 215 222 217 231 238 245 239 128 148 191 236 260 180 176
346 344 344 340 335 336 335 332 331 330 330 331 331 325 322 322 319 318 273 254 359 337 294 228 248 228 6 147 188 182 191 193 197 211 219 220 231 247 258 271 143 164 156 250 176 161 122
348 347 342 337 334 334 332 330 328 328 334 333 329 321 322 322 314 268 242 270 323 313 286 272 219 223 198 177 217 172 195 225 195 218 216 241 220 222 261 275 230 202 202 252 279 168 168
348 347 342 336 336 333 331 330 327 326 335 332 322 321 325 328 294 327 261 246 274 300 278 238 183 207 196 209 229 191 185 216 226 229 233 229 263 280 232 265 267 264 266 200 204 270 248
349 345 342 340 337 334 332 329 326 325 324 322 321 319 319 318 307 278 355 312 322 275 277 124 170 172 181 198 215 191 168 222 249 217 251 242 232 248 220 251 248 266 29 267 282 273 260
347 345 342 339 337 333 332 332 328 324 321 318 315 315 327 198 211 262 299 296 258 237 252 176 126 171 184 211 203 132 178 228 237 262 230 262 270 235 253 235 244 254 242 212 235 245 261
346 344 339 339 338 337 334 333 328 324 319 315 310 306 293 298 253 343 306 250 220 244 211 168 160 188 217 193 233 158 193 205 230 228 236 222 254 219 245 233 222 236 246 249 239 226 272
342 339 338 338 335 333 332 331 328 322 319 316 311 307 238 233 285 247 262 224 240 241 237 289 175 181 204 221 209 176 201 225 217 256 269 225 208 216 205 239 239 209 234 236 240 7 30
341 339 336 330 333 334 334 330 327 323 321 321 309 272 222 219 221 249 235 221 224 246 294 313 205 210 194 219 231 199 204 222 223 206 254 277 235 169 204 211 246 193 231 256 263 93 73
338 338 338 336 334 335 337 331 329 327 326 324 312 289 244 142 204 212 232 242 250 259 299 290 295 248 252 202 219 222 224 213 234 228 206 265 261 171 190 195 238 261 217 232 248 250 187
342 336 336 336 337 337 334 334 333 331 330 317 259 244 105 144 181 218 231 240 248 259 275 285 278 284 271 250 235 228 218 245 220 239 199 254 275 282 252 205 240 219 253 263 278 314 284
342 337 335 337 340 339 339 337 335 338 336 334 298 275 125 170 212 227 241 246 263 284 294 251 264 282 288 292 281 241 245 237 196 214 193 220 263 214 223 198 216 256 214 226 256 236 255
342 342 339 338 339 340 340 339 337 342 10 321 292 300 166 204 253 238 242 234 255 274 285 268 262 250 277 277 291 287 282 248 243 221 237 212 228 262 239 272 199 224 236 250 250 267 66
343 341 340 338 339 342 341 337 334 333 348 321 278 289 197 192 248 282 292 293 295 229 249 280 287 278 259 262 265 276 280 278 262 218 43 316 264 251 263 143 357 297 237 260 256 244 203
340 340 339 337 340 342 340 338 333 332 332 290 246 301 348 299 293 329 315 311 301 297 281 216 264 262 275 273 270 265 255 271 269 153 259 256 254 261 269 163 157 233 289 272 245 258 270
338 340 339 339 348 341 339 339 342 339 333 240 296 347 339 301 302 291 278 265 274 278 272 281 253 252 261 244 261 269 259 255 254 244 215 229 248 258 264 268 246 314 265 283 224 258 288
336 338 339 342 344 341 338 337 336 347 341 322 356 341 305 290 288 288 281 276 282 307 288 309 301 313 289 280 346 338 328 317 298 293 260 247 285 238 248 250 162 35 272 252 201 194 199
331 331 341 339 343 341 339 340 336 350 356 322 310 321 299 293 292 286 296 299 317 309 309 301 309 307 301 324 330 314 310 289 282 281 281 186 266 277 252 273 253 203 225 286 231 246 231
325 337 339 339 339 341 342 339 345 345 350 321 332 319 309 294 307 301 300 318 301 293 277 265 266 276 294 301 294 278 270 272 264 263 261 273 230 253 232 268 275 243 255 285 277 249 236
329 335 337 336 338 341 342 345 348 350 349 316 313 304 318 297 339 348 324 314 307 299 292 280 257 239 261 269 266 258 249 257 255 241 245 247 252 251 251 246 249 295 247 33 15 326 215
329 332 332 333 335 337 339 338 344 343 342 319 298 290 285 287 275 315 314 327 321 312 301 317 349 335 259 256 260 255 257 252 252 253 242 229 236 237 237 239 234 271 102 96 66 264 101
331 331 330 331 332 332 336 336 336 335 338 326 309 29 337 289 296 295 297 305 301 290 273 309 346 324 309 257 259 246 253 253 254 256 259 232 259 231 232 239 236 200 225 229 192 337 42
329 329 327 328 331 329 330 332 333 334 321 326 291 339 334 267 296 306 290 278 266 271 287 289 269 286 45 315 327 339 326 317 303 293 263 245 257 280 229 233 235 162 181 83 233 178 135